TimeEST,TemperatureF,Dew PointF,Humidity,Sea Level PressureIn,VisibilityMPH,Wind Direction,Wind SpeedMPH,Gust SpeedMPH,PrecipitationIn,Events,Conditions,WindDirDegrees,DateUTC
12:53 AM,26.1,18.0,71,30.09,9.0,WNW,6.9,-,0.00,Snow,Light Snow,300,2013-03-02 05:53:00
1:53 AM,27.0,19.0,72,30.09,9.0,NW,10.4,-,0.00,Snow,Light Snow,320,2013-03-02 06:53:00
2:53 AM,26.1,18.0,71,30.08,9.0,NW,9.2,-,0.00,Snow,Light Snow,310,2013-03-02 07:53:00
3:53 AM,26.6,17.6,69,30.05,9.0,WNW,8.1,-,N/A,Snow,Light Snow,300,2013-03-02 08:53:00
4:53 AM,26.1,18.0,71,30.07,9.0,NW,6.9,-,0.00,Snow,Light Snow,320,2013-03-02 09:53:00
5:53 AM,26.1,18.0,71,30.07,9.0,NNW,6.9,-,0.00,Snow,Light Snow,340,2013-03-02 10:53:00
6:53 AM,26.6,17.6,69,30.05,9.0,NNW,12.7,-,N/A,Snow,Light Snow,340,2013-03-02 11:53:00
7:53 AM,26.1,19.0,75,30.09,8.0,NNW,8.1,-,0.00,Snow,Light Snow,340,2013-03-02 12:53:00
8:15 AM,26.6,17.6,69,30.06,6.0,NW,9.2,-,0.00,Snow,Light Snow,320,2013-03-02 13:15:00
8:53 AM,26.1,18.0,71,30.09,5.0,NW,10.4,-,0.00,Snow,Light Snow,320,2013-03-02 13:53:00
9:04 AM,26.6,19.4,74,30.07,6.0,NW,8.1,-,0.00,Snow,Light Snow,310,2013-03-02 14:04:00
9:45 AM,26.6,19.4,74,30.06,2.5,NNW,8.1,-,0.00,Snow,Light Snow,330,2013-03-02 14:45:00
9:53 AM,26.1,19.0,75,30.09,2.5,NW,8.1,-,0.00,Snow,Light Snow,320,2013-03-02 14:53:00
10:12 AM,26.6,19.4,74,30.06,4.0,NW,8.1,-,0.00,Snow,Light Snow,320,2013-03-02 15:12:00
10:53 AM,27.0,19.0,72,30.09,6.0,NW,10.4,-,0.00,Snow,Light Snow,310,2013-03-02 15:53:00
11:53 AM,27.0,19.0,72,30.09,4.0,NW,9.2,-,0.00,Snow,Light Snow,320,2013-03-02 16:53:00
12:53 PM,28.9,19.0,67,30.07,6.0,NW,9.2,-,0.00,Snow,Light Snow,320,2013-03-02 17:53:00
1:41 PM,28.4,17.6,64,30.04,6.0,NNW,12.7,-,0.00,Snow,Light Snow,340,2013-03-02 18:41:00
1:53 PM,28.9,18.0,64,30.06,5.0,NW,11.5,19.6,0.00,Snow,Light Snow,310,2013-03-02 18:53:00
2:14 PM,28.4,17.6,64,30.04,7.0,NNW,12.7,19.6,0.00,Snow,Light Snow,330,2013-03-02 19:14:00
2:53 PM,28.0,18.0,66,30.06,7.0,NW,11.5,-,0.00,Snow,Light Snow,310,2013-03-02 19:53:00
3:53 PM,27.0,18.0,69,30.07,7.0,NNW,10.4,-,0.00,Snow,Light Snow,330,2013-03-02 20:53:00
4:53 PM,27.0,17.1,66,30.07,9.0,NNW,8.1,-,0.00,Snow,Light Snow,330,2013-03-02 21:53:00
5:53 PM,26.1,17.1,69,30.09,9.0,North,9.2,-,0.00,Snow,Light Snow,350,2013-03-02 22:53:00
6:53 PM,26.1,17.1,69,30.09,9.0,NNW,8.1,-,0.00,Snow,Light Snow,340,2013-03-02 23:53:00
7:53 PM,26.6,15.8,64,30.06,9.0,North,10.4,-,N/A,Snow,Light Snow,360,2013-03-03 00:53:00
8:53 PM,26.1,15.1,63,30.09,9.0,NW,11.5,-,0.00,Snow,Light Snow,320,2013-03-03 01:53:00
9:53 PM,25.0,12.9,60,30.09,9.0,North,8.1,-,0.00,,Overcast,350,2013-03-03 02:53:00
10:53 PM,25.0,15.1,66,30.09,9.0,Calm,Calm,-,0.00,Snow,Light Snow,0,2013-03-03 03:53:00
11:53 PM,25.0,17.1,72,30.08,9.0,WNW,5.8,-,0.00,Snow,Light Snow,290,2013-03-03 04:53:00